Location: *
(44.3925°N, 5.4708°E)
Time: 05:53:17
(UTC+00:00)

Cosmos 1821 Rocket - Pass Details

Date: 18 September 2019
Orbit: 944 x 1005 km, 82.9° (Epoch: 17 October)

Event Time Altitude Azimuth Distance (km) Brightness Sun altitude
Rises 20:41:50 0° 352° (N) 3,662 7.6 -30.3°
Reaches altitude 10° 20:44:22 10° 354° (N) 2,704 6.8 -30.7°
Enters shadow 20:49:26 61° 12° (NNE) 1,080 4.2 -31.4°
